Vorticity
10 5 4 8 10 5 7 6 6 6 7 7 5 4 4 5 5 5 7 7 6 6 5 3 3 3 3 4 4 5 6 7 4 6 8 7 11 10 9 11 4 6 4
6 10 7 10 6 3 9 6 6 8 7 7 5 4 3 3 5 5 4 6 5 5 5 5 5 5 5 7 6 5 7 4 6 12 9 12 11 9 13 6 5 6 4
9 2 8 6 5 6 8 7 7 8 7 7 6 5 5 4 5 7 5 4 5 6 5 5 4 4 5 5 8 8 5 4 6 8 9 12 11 12 6 5 8 6 6
4 6 8 6 6 7 7 7 7 7 5 5 6 7 7 7 7 5 6 6 2 4 5 6 4 6 6 1 9 9 7 3 7 12 11 13 8 3 6 8 6 4 4
6 8 6 5 6 7 7 7 7 7 5 5 6 7 8 8 7 5 6 8 7 6 7 7 8 10 10 10 10 8 6 11 7 11 12 8 5 3 4 4 4 3 4
7 9 6 6 7 7 8 6 7 7 5 6 9 11 9 8 9 7 9 9 8 7 9 9 5 5 8 13 20 16 11 12 5 10 6 4 5 5 4 5 4 6 8
8 6 6 7 6 7 8 5 7 6 6 8 9 9 9 8 7 8 8 7 8 8 5 3 3 4 7 15 26 32 24 6 15 8 8 6 5 5 4 3 5 6 2
9 5 7 6 6 8 8 5 6 6 10 13 10 10 8 9 8 9 8 9 6 3 3 4 4 4 7 8 16 24 9 5 2 2 6 8 7 5 5 5 5 5 4
7 6 7 8 7 8 7 6 5 9 11 9 11 11 10 10 10 10 6 4 4 4 4 5 5 5 6 8 9 6 4 4 2 1 3 9 6 7 8 8 8 9 7
6 7 9 9 9 7 7 5 8 10 8 8 8 7 8 6 5 2 3 3 4 6 5 6 8 7 6 7 7 8 2 15 7 0 3 2 4 1 -5 5 7 7 8
7 8 8 9 9 8 5 6 8 7 6 6 6 4 3 3 1 3 6 5 6 6 5 5 6 7 6 6 6 6 12 10 8 11 17 18 10 16 2 4 2 6 8
8 8 9 9 11 7 6 9 7 5 5 2 3 -4 14 -3 4 5 5 2 10 3 2 8 5 6 5 8 6 8 8 9 8 7 14 23 22 13 5 2 7 13 18
10 6 10 8 8 7 6 8 6 4 4 -2 18 -6 1 5 4 5 5 5 5 4 4 5 7 6 5 5 4 2 7 7 8 8 6 12 11 8 5 7 16 18 22
9 7 11 6 7 7 8 6 4 4 3 2 11 8 7 3 5 5 3 5 4 7 8 7 6 5 4 7 9 3 5 7 8 9 7 9 11 12 9 6 10 12 7
10 7 10 7 7 5 8 7 3 5 2 5 6 6 7 4 4 5 5 6 7 16 6 7 5 7 6 7 8 8 4 4 7 6 8 7 6 7 6 6 6 7 9
11 9 8 12 7 7 9 5 3 2 4 4 5 5 5 5 5 5 4 8 9 11 9 10 4 17 8 7 6 8 7 5 5 8 6 7 8 7 8 6 7 6 6
12 9 8 7 9 11 7 6 6 5 7 6 5 4 4 5 3 3 3 9 8 6 7 10 12 5 7 9 6 8 9 7 6 5 6 7 8 7 7 7 7 7 5
10 8 10 9 9 7 3 3 2 2 5 5 5 4 4 4 4 4 4 9 9 5 9 9 14 11 6 10 12 7 8 8 8 5 4 3 5 4 5 5 5 5 6
5 10 10 12 -1 8 4 4 6 4 4 5 5 4 4 4 6 6 4 10 10 11 6 10 13 18 17 9 12 8 8 11 8 7 5 5 5 3 4 4 5 4 5
5 7 8 10 10 8 7 3 4 3 5 6 6 5 5 5 5 5 5 8 6 9 3 6 13 9 18 20 14 10 8 10 10 9 8 7 5 5 4 5 6 5 8
7 6 4 8 7 7 6 5 4 5 6 4 4 6 6 7 5 4 8 6 6 9 4 10 9 9 11 10 9 11 11 11 13 11 13 11 9 9 10 9 7 7 9
10 6 9 5 8 5 4 4 5 5 7 6 6 6 6 6 4 3 6 5 7 6 5 8 7 5 5 11 11 9 9 8 9 10 11 11 8 8 7 7 8 7 8
10 7 10 6 5 6 4 2 2 3 4 5 7 5 7 8 5 4 5 6 6 6 5 7 6 8 4 3 4 5 7 5 4 4 4 2 3 3 3 7 4 9 12
11 6 9 10 6 6 3 4 3 5 6 8 8 7 8 6 6 4 5 8 7 6 6 5 6 7 12 9 7 6 5 6 3 4 4 3 3 4 8 7 12 10 6
11 7 10 16 8 7 7 4 3 6 7 9 6 7 6 2 2 5 6 6 7 7 7 6 6 8 4 5 5 4 5 4 5 6 10 12 13 17 9 11 8 5 10
13 7 10 11 14 10 7 5 7 7 9 8 6 8 4 2 3 5 5 4 4 8 6 7 6 6 7 4 6 5 6 9 8 3 4 12 12 9 8 6 4 7 6
Height
5897 5897 5897 5896 5895 5894 5894 5896 5895 5896 5898 5899 5901 5903 5903 5903 5904 5905 5905 5906 5908 5908 5909 5910 5910 5910 5910 5909 5909 5909 5908 5908 5908 5908 5908 5909 5910 5910 5911 5912 5914 5916 5917
5898 5899 5897 5897 5896 5897 5896 5896 5896 5898 5899 5900 5902 5904 5905 5906 5907 5907 5908 5909 5910 5911 5911 5912 5912 5911 5910 5909 5909 5909 5909 5909 5909 5909 5909 5909 5910 5912 5912 5914 5916 5917 5919
5899 5900 5899 5898 5898 5898 5898 5897 5898 5899 5900 5901 5903 5905 5907 5908 5910 5910 5911 5912 5912 5912 5913 5913 5912 5911 5910 5909 5909 5909 5909 5910 5909 5909 5910 5910 5912 5914 5915 5916 5917 5919 5920
5899 5900 5899 5899 5900 5899 5899 5898 5899 5900 5901 5902 5904 5907 5909 5910 5911 5912 5912 5913 5914 5914 5914 5914 5913 5912 5911 5910 5908 5907 5909 5909 5910 5910 5911 5912 5914 5916 5917 5918 5920 5921 5921
5900 5901 5899 5900 5901 5900 5899 5900 5901 5902 5904 5905 5906 5908 5910 5911 5912 5912 5913 5914 5914 5915 5915 5916 5914 5913 5910 5908 5907 5907 5909 5909 5911 5911 5912 5914 5916 5918 5919 5920 5922 5922 5923
5902 5901 5901 5901 5901 5902 5901 5901 5903 5905 5906 5907 5909 5910 5910 5912 5912 5913 5914 5915 5915 5916 5917 5916 5915 5913 5911 5909 5907 5907 5908 5910 5912 5913 5914 5916 5918 5919 5921 5922 5923 5923 5924
5903 5902 5903 5902 5901 5902 5903 5903 5905 5907 5908 5910 5912 5913 5913 5914 5914 5914 5915 5916 5917 5918 5918 5917 5916 5915 5913 5910 5906 5904 5907 5912 5914 5916 5917 5918 5919 5921 5922 5923 5924 5924 5925
5902 5903 5903 5903 5902 5904 5905 5905 5907 5909 5911 5913 5914 5914 5915 5916 5917 5917 5916 5916 5917 5918 5918 5918 5917 5916 5915 5912 5909 5909 5911 5914 5916 5917 5919 5920 5921 5922 5923 5924 5924 5925 5925
5903 5903 5904 5903 5903 5905 5906 5908 5909 5910 5913 5915 5916 5916 5916 5916 5918 5920 5920 5920 5920 5921 5921 5920 5919 5918 5917 5916 5915 5915 5917 5918 5919 5920 5921 5922 5922 5922 5923 5924 5924 5924 5924
5904 5903 5904 5904 5905 5907 5908 5910 5911 5913 5915 5918 5919 5919 5920 5920 5920 5923 5924 5925 5924 5924 5922 5922 5921 5921 5921 5919 5919 5920 5920 5920 5921 5920 5920 5920 5921 5922 5923 5923 5924 5924 5924
5904 5904 5905 5905 5906 5909 5911 5912 5913 5914 5918 5921 5923 5923 5923 5924 5927 5925 5927 5927 5926 5927 5926 5926 5925 5923 5923 5923 5922 5923 5922 5922 5921 5921 5919 5920 5920 5921 5923 5924 5924 5924 5924
5904 5906 5906 5906 5908 5910 5913 5914 5915 5917 5920 5926 5928 5928 5928 5927 5930 5931 5929 5929 5929 5929 5930 5929 5928 5926 5925 5925 5925 5926 5925 5923 5922 5922 5921 5920 5919 5921 5923 5924 5924 5922 5921
5905 5907 5907 5908 5910 5912 5914 5916 5917 5919 5923 5927 5929 5929 5931 5932 5933 5934 5931 5931 5931 5931 5931 5931 5930 5928 5926 5927 5927 5928 5926 5924 5924 5925 5924 5922 5921 5922 5924 5925 5923 5922 5921
5905 5907 5908 5910 5911 5914 5916 5918 5920 5922 5926 5929 5932 5934 5935 5935 5935 5935 5933 5933 5932 5932 5932 5932 5931 5930 5929 5927 5930 5930 5928 5927 5926 5924 5924 5925 5925 5926 5926 5926 5926 5925 5925
5906 5908 5909 5911 5913 5915 5918 5921 5922 5926 5929 5930 5933 5935 5936 5937 5937 5936 5935 5933 5934 5934 5933 5932 5930 5932 5930 5928 5929 5931 5930 5928 5926 5926 5926 5926 5927 5926 5927 5927 5927 5927 5928
5907 5908 5910 5912 5915 5917 5920 5923 5924 5927 5932 5933 5935 5937 5939 5937 5935 5936 5935 5934 5935 5936 5935 5933 5932 5932 5930 5929 5928 5930 5930 5929 5928 5928 5927 5927 5928 5929 5929 5930 5930 5930 5929
5909 5909 5911 5914 5916 5919 5921 5925 5926 5928 5932 5933 5934 5936 5936 5936 5937 5938 5937 5936 5937 5935 5935 5934 5933 5931 5931 5929 5930 5930 5930 5929 5930 5930 5929 5929 5930 5931 5931 5931 5931 5931 5931
5908 5910 5912 5914 5917 5921 5924 5926 5927 5929 5932 5935 5937 5937 5938 5940 5940 5939 5939 5939 5939 5939 5938 5935 5932 5931 5930 5931 5931 5930 5930 5931 5931 5930 5931 5932 5933 5933 5932 5932 5932 5932 5932
5908 5910 5912 5915 5917 5921 5925 5927 5929 5931 5933 5936 5938 5939 5939 5939 5940 5940 5940 5940 5940 5938 5936 5934 5932 5931 5930 5931 5932 5932 5932 5932 5932 5932 5932 5933 5934 5934 5933 5933 5934 5933 5932
5907 5909 5912 5915 5918 5922 5926 5928 5931 5933 5935 5937 5939 5940 5941 5940 5942 5942 5941 5940 5940 5940 5938 5937 5937 5935 5934 5933 5932 5933 5933 5933 5934 5935 5934 5934 5934 5934 5933 5933 5933 5933 5933
5906 5909 5912 5915 5919 5922 5925 5929 5932 5935 5937 5939 5940 5941 5943 5943 5944 5945 5945 5944 5944 5942 5942 5940 5939 5937 5935 5935 5934 5934 5935 5935 5936 5935 5935 5934 5934 5933 5934 5934 5933 5933 5932
5903 5909 5912 5916 5919 5922 5925 5929 5933 5936 5938 5940 5941 5943 5945 5945 5946 5946 5946 5946 5945 5944 5943 5942 5941 5939 5937 5938 5936 5936 5937 5938 5938 5937 5937 5936 5935 5935 5936 5935 5935 5933 5934
5902 5907 5911 5915 5918 5922 5925 5929 5933 5936 5938 5941 5942 5944 5946 5947 5947 5947 5948 5947 5947 5946 5945 5944 5943 5942 5940 5939 5939 5940 5940 5939 5939 5938 5937 5937 5937 5936 5936 5935 5934 5933 5933
5901 5905 5911 5914 5917 5922 5926 5929 5933 5935 5938 5941 5942 5944 5947 5948 5948 5949 5949 5949 5949 5948 5947 5947 5946 5945 5944 5943 5943 5943 5942 5941 5940 5940 5938 5937 5936 5935 5936 5935 5934 5933 5933
5902 5904 5909 5913 5916 5921 5925 5928 5932 5935 5938 5940 5941 5944 5946 5948 5949 5950 5950 5951 5950 5950 5949 5948 5947 5947 5946 5945 5945 5945 5944 5942 5941 5940 5939 5937 5937 5937 5935 5935 5935 5934 5934
5901 5904 5907 5912 5915 5919 5923 5927 5931 5934 5937 5940 5941 5943 5945 5947 5949 5950 5951 5951 5950 5950 5949 5949 5948 5948 5947 5947 5947 5945 5945 5944 5943 5942 5940 5939 5936 5937 5938 5936 5935 5936 5934